Stevens Point, WI

5:59 PM CST on February 06, 2016 (GMT -0600)
Stevens Point Municipal

Weather History for KSTE - February, 2014

Change the Weather History Date:

Monday, February 10, 2014

  Actual Average Record
Temperature  
Mean Temperature -6 °F -  
Max Temperature 2 °F 26 °F 46 °F (1976)
Min Temperature -14 °F 7 °F -20 °F (1979)
Degree Days  
Heating Degree Days 70    
Moisture  
Dew Point -14 °F    
Average Humidity 64    
Maximum Humidity 78    
Minimum Humidity 52    
Precipitation  
Precipitation 0.00 in - - ()
Sea Level Pressure  
Sea Level Pressure 30.33 in    
Wind  
Wind Speed 5 mph (WNW)    
Max Wind Speed 14 mph    
Max Gust Speed 18 mph    
Visibility 10 miles    
Events      
Averages and records for this station are not official NWS values.
T = Trace of Precipitation, MM = Missing Value Source: NWS Daily Summary

Daily Weather History Graph

Daily Weather History Graph

Search for Another Location

Airport or City:

Trip Planner

Search our weather history database for the weather conditions in past years. The results will help you decide how hot, cold, wet, or windy it might be!

Date:

Astronomy

Feb. 10, 2014 Rise Set
Actual Time 7:05 AM CST 5:19 PM CST
Civil Twilight 6:35 AM CST 5:50 PM CST
Nautical Twilight 6:00 AM CST 6:24 PM CST
Astronomical Twilight 5:26 AM CST 6:58 PM CST
Moon 1:45 PM CST (2/10) 4:02 AM CST (2/10)
Length of Visible Light 11h 15m
Length of Day
10h 14m
Waxing Gibbous, 85% of the Moon is Illuminated
Feb 10
Waxing Gibbous
Feb 14
Full
Feb 22
Last Quarter
Mar 1
New
Mar 8
First Quarter

Hourly Weather History & Observations

Time (CST) Temp. Windchill Dew Point Humidity Pressure Visibility Wind Dir Wind Speed Gust Speed Precip Events Conditions
12:15 AM -5.8 °F -14.5 °F -14.1 °F 67% 30.26 in 10.0 mi WNW 3.5 mph - N/A   Clear
12:35 AM -6.0 °F -16.9 °F -14.1 °F 68% 30.26 in 10.0 mi WNW 4.6 mph - N/A   Clear
12:55 AM -6.0 °F -16.9 °F -14.1 °F 68% 30.26 in 10.0 mi WNW 4.6 mph - N/A   Clear
1:15 AM -6.0 °F -14.7 °F -14.1 °F 68% 30.26 in 10.0 mi WNW 3.5 mph - N/A   Clear
1:35 AM -6.3 °F -17.3 °F -14.3 °F 69% 30.26 in 10.0 mi NW 4.6 mph - N/A   Clear
1:55 AM -6.7 °F -17.7 °F -14.8 °F 68% 30.27 in 10.0 mi WNW 4.6 mph - N/A   Clear
2:15 AM -7.1 °F -15.9 °F -14.8 °F 69% 30.27 in 10.0 mi West 3.5 mph - N/A   Clear
2:35 AM -7.2 °F -18.3 °F -14.8 °F 70% 30.26 in 10.0 mi WNW 4.6 mph - N/A   Clear
2:55 AM -8.0 °F -19.2 °F -15.2 °F 71% 30.27 in 10.0 mi West 4.6 mph - N/A   Clear
3:15 AM -8.9 °F -18.0 °F -15.7 °F 72% 30.27 in 10.0 mi West 3.5 mph - N/A   Clear
3:35 AM -9.4 °F -18.6 °F -15.9 °F 73% 30.27 in 10.0 mi West 3.5 mph - N/A   Clear
3:55 AM -9.4 °F -18.6 °F -15.9 °F 73% 30.28 in 10.0 mi West 3.5 mph - N/A   Clear
4:15 AM -9.6 °F -18.8 °F -15.9 °F 74% 30.28 in 10.0 mi West 3.5 mph - N/A   Clear
4:35 AM -9.9 °F -19.2 °F -16.1 °F 74% 30.29 in 10.0 mi WNW 3.5 mph - N/A   Clear
4:55 AM -9.8 °F - -15.9 °F 74% 30.29 in 10.0 mi Calm Calm - N/A   Clear
5:15 AM -10.3 °F - -16.4 °F 74% 30.29 in 10.0 mi Calm Calm - N/A   Clear
5:35 AM -10.7 °F - -16.8 °F 74% 30.30 in 10.0 mi Calm Calm - N/A   Clear
5:55 AM -11.2 °F -20.6 °F -17.0 °F 76% 30.30 in 10.0 mi West 3.5 mph - N/A   Clear
6:15 AM -11.4 °F -20.8 °F -17.0 °F 76% 30.31 in 10.0 mi West 3.5 mph - N/A   Clear
6:35 AM -11.7 °F - -17.3 °F 76% 30.31 in 10.0 mi Calm Calm - N/A   Clear
6:55 AM -12.1 °F - -17.3 °F 78% 30.32 in 10.0 mi Calm Calm - N/A   Clear
7:15 AM -12.5 °F -22.1 °F -17.5 °F 78% 30.32 in 10.0 mi West 3.5 mph - N/A   Clear
7:35 AM -12.3 °F - -17.5 °F 78% 30.33 in 10.0 mi Calm Calm - N/A   Clear
7:55 AM -11.4 °F -23.2 °F -17.1 °F 76% 30.33 in 10.0 mi West 4.6 mph - N/A   Clear
8:15 AM -10.3 °F -19.6 °F -16.8 °F 73% 30.34 in 10.0 mi WNW 3.5 mph - N/A   Clear
8:35 AM -9.2 °F -18.4 °F -16.4 °F 71% 30.34 in 10.0 mi West 3.5 mph - N/A   Clear
8:55 AM -7.8 °F -20.8 °F -15.5 °F 69% 30.34 in 10.0 mi WNW 5.8 mph - N/A   Clear
9:15 AM -6.7 °F -19.5 °F -15.2 °F 67% 30.34 in 10.0 mi WNW 5.8 mph - N/A   Clear
9:35 AM -5.3 °F -17.8 °F -14.8 °F 63% 30.35 in 10.0 mi WNW 5.8 mph - N/A   Clear
9:55 AM -4.2 °F -18.0 °F -14.3 °F 62% 30.35 in 10.0 mi WNW 6.9 mph - N/A   Clear
10:15 AM -3.5 °F -20.5 °F -14.3 °F 60% 30.35 in 10.0 mi WNW 10.4 mph - N/A   Clear
10:35 AM -2.6 °F -16.0 °F -13.9 °F 59% 30.35 in 10.0 mi WNW 6.9 mph - N/A   Clear
10:55 AM -1.5 °F -19.0 °F -13.2 °F 58% 30.35 in 10.0 mi NW 11.5 mph - N/A   Clear
11:15 AM -0.8 °F -16.2 °F -13.5 °F 55% 30.35 in 10.0 mi West 9.2 mph - N/A   Clear
11:35 AM -0.2 °F -16.5 °F -13.0 °F 55% 30.34 in 10.0 mi West 10.4 mph - N/A   Clear
11:55 AM 0.5 °F -14.6 °F -13.2 °F 53% 30.33 in 10.0 mi WNW 9.2 mph - N/A   Clear
12:15 PM 0.7 °F -13.3 °F -13.2 °F 52% 30.33 in 10.0 mi WNW 8.1 mph - N/A   Clear
12:35 PM 1.2 °F -14.7 °F -12.5 °F 53% 30.32 in 10.0 mi West 10.4 mph - N/A   Clear
12:55 PM 1.4 °F -16.9 °F -12.5 °F 52% 30.32 in 10.0 mi West 13.8 mph 18.4 mph N/A   Clear
1:15 PM 1.4 °F -14.5 °F -12.3 °F 53% 30.32 in 10.0 mi West 10.4 mph 16.1 mph N/A   Clear
1:35 PM 1.4 °F -14.5 °F -12.1 °F 53% 30.31 in 10.0 mi West 10.4 mph 18.4 mph N/A   Clear
1:55 PM 1.4 °F -15.3 °F -11.9 °F 54% 30.31 in 10.0 mi WSW 11.5 mph 17.3 mph N/A   Clear
2:15 PM 1.4 °F -14.5 °F -11.7 °F 54% 30.31 in 10.0 mi West 10.4 mph 17.3 mph N/A   Clear
2:35 PM 1.9 °F -14.7 °F -11.6 °F 53% 30.32 in 10.0 mi West 11.5 mph - N/A   Clear
2:55 PM 1.9 °F -12.9 °F -11.2 °F 54% 30.32 in 10.0 mi West 9.2 mph - N/A   Clear
3:15 PM 2.5 °F -14.0 °F -10.8 °F 54% 30.32 in 10.0 mi West 11.5 mph - N/A   Clear
3:35 PM 2.7 °F -9.7 °F -10.7 °F 54% 30.32 in 10.0 mi West 6.9 mph - N/A   Clear
3:55 PM 2.5 °F -14.0 °F -11.0 °F 53% 30.32 in 10.0 mi West 11.5 mph - N/A   Clear
4:15 PM 2.7 °F -8.4 °F -10.7 °F 54% 30.33 in 10.0 mi WNW 5.8 mph - N/A   Clear
4:35 PM 2.3 °F -11.4 °F -10.7 °F 55% 30.33 in 10.0 mi West 8.1 mph - N/A   Clear
4:55 PM 2.1 °F -9.0 °F -11.2 °F 54% 30.33 in 10.0 mi WNW 5.8 mph - N/A   Clear
5:15 PM 1.4 °F -12.5 °F -11.4 °F 55% 30.34 in 10.0 mi WNW 8.1 mph - N/A   Clear
5:35 PM 0.5 °F -11.0 °F -11.7 °F 56% 30.35 in 10.0 mi WNW 5.8 mph - N/A   Clear
5:55 PM 0.3 °F -11.2 °F -11.9 °F 56% 30.35 in 10.0 mi West 5.8 mph - N/A   Clear
6:15 PM -0.4 °F -8.3 °F -12.1 °F 58% 30.37 in 10.0 mi West 3.5 mph - N/A   Clear
6:35 PM -1.3 °F -9.3 °F -12.3 °F 60% 30.37 in 10.0 mi West 3.5 mph - N/A   Clear
6:55 PM -1.7 °F - -12.3 °F 61% 30.37 in 10.0 mi Calm Calm - N/A   Clear
7:15 PM -2.2 °F -12.5 °F -12.6 °F 61% 30.37 in 10.0 mi West 4.6 mph - N/A   Clear
7:35 PM -2.4 °F -12.7 °F -13.0 °F 61% 30.37 in 10.0 mi WNW 4.6 mph - N/A   Clear
7:55 PM -2.2 °F -15.6 °F -12.8 °F 61% 30.38 in 10.0 mi WNW 6.9 mph - N/A   Clear
8:15 PM -2.4 °F -15.8 °F -12.6 °F 62% 30.38 in 10.0 mi WNW 6.9 mph - N/A   Clear
8:35 PM -3.1 °F -13.5 °F -13.0 °F 63% 30.39 in 10.0 mi WNW 4.6 mph - N/A   Clear
8:55 PM -3.5 °F -13.9 °F -13.0 °F 64% 30.40 in 10.0 mi WNW 4.6 mph - N/A   Clear
9:15 PM -4.0 °F -12.4 °F -13.2 °F 65% 30.39 in 10.0 mi WNW 3.5 mph - N/A   Clear
9:35 PM -4.4 °F -12.8 °F -13.2 °F 66% 30.40 in 10.0 mi WNW 3.5 mph - N/A   Clear
9:55 PM -4.9 °F -13.4 °F -13.5 °F 66% 30.40 in 10.0 mi WNW 3.5 mph - N/A   Clear
10:15 PM -5.3 °F - -13.5 °F 67% 30.40 in 10.0 mi Calm Calm - N/A   Clear
10:35 PM -8.0 °F - -16.1 °F 68% 30.41 in 10.0 mi Calm Calm - N/A   Clear
10:55 PM -7.4 °F - -14.8 °F 70% 30.41 in 10.0 mi Calm Calm - N/A   Clear
11:15 PM -8.9 °F - -15.5 °F 73% 30.41 in 10.0 mi Calm Calm - N/A   Clear
11:35 PM -13.0 °F - -19.1 °F 74% 30.41 in 10.0 mi Calm Calm - N/A   Clear
11:55 PM -14.4 °F - -19.7 °F 77% 30.41 in 10.0 mi Calm Calm - N/A   Clear